Regional Weather Roundup
Issued by NWS Northern Indiana

Home | Current Version | Previous Version | Graphics & Text | Print | Product List | Glossary On
Versions: 1 2 3 4 5 6 7 8 9 10 11 12 13 14 15 16 17 18 19 20 21 22 23 24 25 26 27 28 29 30 31 32 33 34 35 36 37 38 39 40 41 42 43 44 45 46 47 48 49 50
000
ASUS43 KIWX 190910
RWRIWX

KIWX WEATHER ROUNDUP
NATIONAL WEATHER SERVICE NORTHERN INDIANA
500 AM EDT THU OCT 19 2017

NOTE: "FAIR" INDICATES FEW OR NO CLOUDS BELOW 12,000 FEET WITH NO
SIGNIFICANT WEATHER AND/OR OBSTRUCTIONS TO VISIBILITY.

* THESE STATIONS ARE NOT UNDER NWS QUALITY CONTROL. THEY ALSO MAY NOT
  REPORT WEATHER SUCH AS PRECIPITATION OR FOG.

INZ001>027-191000-
NORTHERN INDIANA

CITY           SKY/WX    TMP DP  RH WIND       PRES   REMARKS
GARY*          CLEAR     55  46  72 SW5       30.07S
VALPARAISO     CLEAR     51  46  83 CALM      30.08S
MICHIGAN CITY* CLEAR     52  45  76 SW7       30.07S
LAPORTE*       CLEAR     49  45  84 SW5       30.08S
KNOX*          CLEAR     50  45  81 S6        30.08S
SOUTH BEND     CLEAR     53  46  77 SW15      30.07F
GOSHEN         CLEAR     53  44  71 SW12      30.08S
MONTICELLO*    CLEAR     50  46  84 S6        30.10S
LOGANSPORT*    CLEAR     50  45  81 S9        30.12R
WARSAW*        CLEAR     55  45  67 SW7       30.09S
AUBURN*        CLEAR     52  43  71 SW7       30.10F
FORT WAYNE     PTCLDY    49  44  83 SW8       30.12F
HUNTINGTON*    CLEAR     52  46  79 SW5       30.12S
PERU/GRISSOM   CLEAR     51  46  83 SW12      30.11F

$$
INZ028>050-191000-
CENTRAL INDIANA

CITY           SKY/WX    TMP DP  RH WIND       PRES   REMARKS
LAFAYETTE      CLEAR     52  47  83 SW5       30.11F
KOKOMO*        CLEAR     55  46  71 SW14      30.13F
MUNCIE*        CLEAR     56  45  66 SW9       30.14F
INDIANAPOLIS   PTCLDY    53  46  77 S10       30.17F

$$
MIZ043>046-050>051-056>058-064>065-071>073-077>080-191000-
SOUTHWEST LOWER MICHIGAN

CITY           SKY/WX    TMP DP  RH WIND       PRES   REMARKS
BATTLE CREEK   PTCLDY    53  45  74 SW14      30.04F
BENTON HARBOR  CLEAR     56  45  66 SW9       30.04S
COLDWATER*     PTCLDY    52  44  73 SW7       30.07S
HILLSDALE*     CLEAR     52  43  71 SW8       30.07S
HOLLAND        CLEAR     60  51  72 W15       30.02R
GRAND RAPIDS   CLEAR     55  47  74 SW12      30.00S
KALAMAZOO      PTCLDY    51  43  74 S9        30.04F
STURGIS*       CLEAR     53  46  75 SW7       30.06S
THREE RIVERS*  FAIR      53  46  75 SW9       30.07S

$$
OHZ001>008-015>018-024>025-191000-
NORTHWEST OHIO

CITY           SKY/WX    TMP DP  RH WIND       PRES   REMARKS
WAUSEON*       FAIR      48  45  87 SW9       30.09S
DEFIANCE       CLEAR     52  43  71 SW8       30.10F
FINDLAY        CLEAR     50  43  77 S9        30.12F
TOLEDO EXPRESS CLEAR     53  46  77 SW10      30.09F
TOLEDO METCALF CLEAR     51  43  74 SW8       30.11F
LIMA           CLEAR     51  44  77 S10       30.14F

$$
AND FOR LAKE MICHIGAN COASTAL AND OPEN LAKE BUOY OBSERVATIONS

STATION/POSITION TEMP    WIND        PRES    VSBY  WAVE
                 AIR SEA DIR/SP/G                  HT/PER
                 (F)     (DEG/KT/KT) (MB)    (MI)  (FT/S)
CALUMET HARBOR    56     210/  5/  9 1016.8S
MICHIGAN CITY     55     190/ 10/ 12   N/A
BURNS HARBOR      57     200/ 11/ 17 1018.3S
SAINT JOSEPH      58     210/ 17/ 21 1017.9
SOUTH LAKE BUOY   62 61  260/ 17/ 19 1015.7          4/ 6
4 MI NW BRIDGMAN  58 58  230/ 16/ 19 1017.9          4/ 5
MICHIGAN CITY     57 58  220/ 14/ 16   N/A           2/ 4

$$
&&



USA.gov is the U.S. government's official web portal to all federal, state and local government web resources and services.